• Processing (Info)

  • MPEC 2019-M34 : 2019 LP5

    The following Minor Planet Electronic Circular may be linked-to from your own Web pages, but must not otherwise be redistributed electronically.

    A form allowing access to any MPEC is at the bottom of this page.


    Read MPEC 2019-M33 Read MPEC 2019-M35


    M.P.E.C. 2019-M34                                Issued 2019 June 19, 16:56 UT  
    
         The Minor Planet Electronic Circulars contain information on unusual
             minor planets and routine data on comets.  They are published
        on behalf of Division F of the International Astronomical Union by the
              Minor Planet Center, Smithsonian Astrophysical Observatory,
                              Cambridge, MA 02138, U.S.A.
    
                 Prepared using the Tamkin Foundation Computer Network
    
                                  MPC@CFA.HARVARD.EDU
                URL https://www.minorplanetcenter.net/    ISSN 1523-6714
    
                                    2019 LP5                                 
    
    Observations:
         K19L05P  C2019 06 05.33368414 42 08.144-16 34 22.88               VEM034F51
         K19L05P* C2019 06 07.37309 14 53 24.006-11 46 24.46         21.0 wUEM034F51
         K19L05P  C2019 06 07.38371 14 53 26.110-11 45 22.09         20.8 wUEM034F51
         K19L05P  C2019 06 07.40489 14 53 30.297-11 43 18.45         20.9 wUEM034F51
         K19L05P pC2019 06 07.88219314 55 13.09 -11 00 48.6          21.0 GVEM034L01
         K19L05P KC2019 06 07.88865414 55 14.18 -11 00 15.2          20.9 GVEM034L01
         K19L05P |C2019 06 08.05668 14 55 48.36 -10 45 08.4          20.9 GUEM034807
         K19L05P |C2019 06 08.05952 14 55 48.85 -10 44 55.1          20.6 GUEM034807
         K19L05P |C2019 06 08.06239 14 55 49.33 -10 44 41.5          21.0 GUEM034807
         K19L05P  C2019 06 08.21081 14 56 15.81 -10 34 21.6          20.9 GVEM034I52
         K19L05P  C2019 06 08.21206 14 56 15.94 -10 34 15.7          20.0 GVEM034I52
         K19L05P  C2019 06 08.21330 14 56 16.16 -10 34 09.7          20.8 GVEM034I52
         K19L05P  C2019 06 08.21455 14 56 16.32 -10 34 03.3          21.6 GVEM034I52
         K19L05P  C2019 06 09.21501 14 58 57.31 -09 27 11.2                VEM034I52
         K19L05P  C2019 06 09.21833 14 58 57.70 -09 26 59.5                VEM034I52
         K19L05P KC2019 06 09.21974 14 58 58.02 -09 26 53.6          21.7 RoEM034691
         K19L05P  C2019 06 09.22166 14 58 58.14 -09 26 47.8          21.2 GVEM034I52
         K19L05P  C2019 06 09.22499 14 58 58.57 -09 26 34.8          20.8 GVEM034I52
         K19L05P KC2019 06 09.23332 14 58 59.62 -09 26 06.1          21.0 RoEM034691
         K19L05P ^C2019 06 12.26051 15 04 28.22 -07 18 42.4          21.7 RoEM034695
         K19L05P ^C2019 06 12.26852 15 04 28.77 -07 18 27.9          22.1 RoEM034695
         K19L05P ^C2019 06 12.27653 15 04 29.34 -07 18 13.3          21.7 RoEM034695
    
    Observer details:
    691 Steward Observatory, Kitt Peak-Spacewatch.  Observer R. A. Mastaler.  
        0.9-m f/3 reflector + CCD.
    695 Kitt Peak.  Observer R. A. Mastaler.  2.3-m f/9 reflector + CCD.
    807 Cerro Tololo Observatory, La Serena.  Observers T. Linder, R. Holmes.  
        1.00-m f/10.0 astrograph + CCD.
    F51 Pan-STARRS 1, Haleakala.  Observers J. Bulger, K. Chambers, T. Lowe,
        E. Magnier, A. Schultz, M. Willman.  Measurers S. Chastel, M. Huber,
        Y. Ramanjooloo, R. Wainscoat, R. Weryk, K. Chambers, T. de Boer, L. Denneau,
        J. Fairlamb, H. Flewelling, C.-C. Lin, E. Magnier.  
        1.8-m Ritchey-Chretien + CCD.
    I52 Steward Observatory, Mt. Lemmon Station.  Observer B. M. Africano.  
        Measurers B. M. Africano, E. J. Christensen, G. A. Farneth, D. C. Fuls,
        A. R. Gibbs, A. D. Grauer, H. Groeller, R. A. Kowalski, S. M. Larson,
        G. J. Leonard, T. A. Pruyne, D. Rankin, R. L. Seaman, F. C. Shelly.  
        1.0-m reflector + CCD.
    L01 Visnjan Observatory, Tican.  Observer K. Korlevic.  
        1.0-m f/2.9 reflector + CCD.
    
    Orbital elements:
    2019 LP5                                                 Earth MOID = 0.0218 AU
    Epoch 2019 Apr. 27.0 TT = JDT 2458600.5                 MPC
    M   6.12625              (2000.0)            P               Q
    n   0.61121385     Peri.  226.72225     -0.41290874     -0.80945908
    a   1.3751200      Node   252.16637     +0.90959154     -0.34316758
    e   0.8038178      Incl.   26.01099     +0.04636382     -0.47645777
    P   1.61           H   24.1           G   0.15           U   8
    Residuals in seconds of arc
    190605 F51  0.0   0.0     190608 807  0.2+  0.0     190609 I52  0.2-  0.5-
    190607 F51  0.0   0.0     190608 I52  0.2+  0.5-    190609 I52  0.2+  0.8+
    190607 F51  0.0   0.2+    190608 I52  0.7-  0.3-    190609 691  0.1+  0.1-
    190607 F51  0.1+  0.1+    190608 I52  0.3-  0.0     190612 695  0.1-  0.1+
    190607 L01  0.2+  0.9-    190608 I52  0.8-  0.7+    190612 695  0.2-  0.1+
    190607 L01  0.5-  0.0     190609 I52  0.7-  0.5-    190612 695  0.1+  0.2+
    190608 807  0.4-  0.2+    190609 I52  0.8-  0.5-
    190608 807  0.0   0.0     190609 691  0.7+  0.1+
    
    Ephemeris:
    2019 LP5                 a,e,i = 1.38, 0.80, 26                  q = 0.2698
    Date    TT    R. A. (2000) Decl.     Delta      r    Elong.  Phase     V
    2019 05 20    03 28 34.6 -03 56 39   0.2102  0.8244    24.1   149.9    28.7
    ...
    2019 06 04    14 26 38.7 -22 48 56   0.05501 1.0615   148.0    30.4    19.2
    ...
    2019 06 12    15 04 06.4 -07 26 18   0.1896  1.1743   144.1    30.5    22.2
    ...
    2019 06 18    15 10 34.4 -05 31 12   0.2947  1.2535   139.1    32.1    23.3
    2019 06 19    15 11 24.0 -05 21 05   0.3124  1.2663   138.3    32.3    23.5
    2019 06 20    15 12 11.7 -05 12 31   0.3302  1.2790   137.5    32.5    23.6
    ...
    2019 06 26    15 16 34.4 -04 44 00   0.4383  1.3528   132.7    33.5    24.4
    ...
    2019 07 04    15 22 15.2 -04 41 08   0.5860  1.4455   126.7    34.3    25.2
    ...
    2019 07 19    15 34 08.2 -05 22 11   0.8730  1.6034   115.9    34.8    26.3
    
    A. U. Tomatic                (C) Copyright 2019 MPC           M.P.E.C. 2019-M34
    


    Read MPEC 2019-M33 Read MPEC 2019-M35


    MPEC number:

    Enter an MPEC number in one of the following forms:

    • 1997-B01 (the full form)
    • J97B01 (the packed version of the full form)
    • B01 (the abbreviated form)